Regional Weather Roundup
Issued by NWS

Home | Current Version | Previous Version | Graphics & Text | Print | Product List | Glossary On
Versions: 1 2 3 4 5 6 7 8 9 10 11 12 13 14 15 16 17 18 19 20 21 22 23 24 25 26 27 28 29 30 31 32 33 34 35 36 37 38 39 40 41 42 43 44 45 46 47 48 49 50
000
ASUS45 KBOI 200410
RWRID

IDAHO REGIONAL WEATHER ROUNDUP
NATIONAL WEATHER SERVICE BOISE ID
900 PM MST THU JAN 19 2017

NOTE: "FAIR" INDICATES FEW OR NO CLOUDS BELOW 12000 FEET
WITH NO SIGNIFICANT WEATHER AND/OR OBSTRUCTIONS TO VISIBILITY

IDZ012-014-200500-
SOUTHWEST IDAHO


CITY           SKY/WX    TMP DP  RH WIND       PRES   REMARKS
BOISE          CLOUDY    36  32  85 SE10      29.67F WCI  28
CALDWELL       FOG       28  27  96 CALM      29.68F VSB 1/2
MOUNTAIN HOME  MOCLDY    31  31 100 E9        29.68S WCI  23
$$

IDZ016-017-200500-
SOUTHCENTRAL IDAHO


CITY           SKY/WX    TMP DP  RH WIND       PRES   REMARKS
BURLEY         MIX PCPN  35  32  88 S10       29.67S WCI  27
JEROME         CLOUDY    32  31  96 S6        29.67F FOG     WCI  26
TWIN FALLS     CLOUDY    34  31  88 S6        29.67F WCI  29
$$

IDZ019>023-200500-
SOUTHEAST IDAHO


CITY           SKY/WX    TMP DP  RH WIND       PRES   REMARKS
IDAHO FALLS    CLOUDY    31  29  92 CALM      29.66F
POCATELLO      MOCLDY    31  25  78 S5        29.67S WCI  26
REXBURG        CLOUDY    30  29  96 CALM      29.66F
$$

IDZ006-010-011-018-031-032-200500-
CENTRAL IDAHO MOUNTAINS


CITY           SKY/WX    TMP DP  RH WIND       PRES   REMARKS
MCCALL         CLOUDY    31  27  85 SE6       29.58F WCI  25
HAILEY         CLOUDY    28  27  93 CALM      29.66F
STANLEY          N/A     22  21  96 CALM      29.60F
SALMON         CLOUDY    27  27 100 CALM      29.62S
CHALLIS        CLOUDY    21  19  92 S3        29.61F
$$

IDZ002-004-006-007-026-200500-
NORTHERN IDAHO


CITY           SKY/WX    TMP DP  RH WIND       PRES   REMARKS
LEWISTON       CLOUDY    38  34  85 E6        29.62F WCI  33
LOWELL           N/A     33  31  92 CALM      29.68F
COEUR D`ALENE  PTCLDY    30  29  96 SE3       29.59S
MULLAN PASS    CLOUDY    27  23  85 W5        29.52F WCI  22
$$



USA.gov is the U.S. government's official web portal to all federal, state and local government web resources and services.